Weather History for West Plains, MO

Change the Weather History Date:

Thursday, May 15, 2014

  Actual Average Record
Temperature  
Mean Temperature 52 °F 65 °F  
Max Temperature 65 °F 76 °F 87 °F (1957)
Min Temperature 39 °F 54 °F 35 °F (1959)
Degree Days  
Heating Degree Days 13 3  
Month to date heating degree days 69 54  
Since 1 July heating degree days 4821 4316  
Cooling Degree Days 0 3  
Month to date cooling degree days 57 29  
Year to date cooling degree days 66 57  
Growing Degree Days 1 (Base 50)    
Moisture  
Dew Point 39 °F    
Average Humidity 64    
Maximum Humidity 92    
Minimum Humidity 36    
Precipitation  
Precipitation T in 0.15 in 1.61 in (1956)
Month to date precipitation 2.64 2.80  
Year to date precipitation 11.81 17.13  
Sea Level Pressure  
Sea Level Pressure 30.10 in    
Wind  
Wind Speed 7 mph (West)    
Max Wind Speed 20 mph    
Max Gust Speed 27 mph    
Visibility 10 miles    
Events Rain , Thunderstorm    
T = Trace of Precipitation, MM = Missing Value Source: NWS Daily Summary

Daily Weather History Graph

Daily Weather History Graph

Search for Another Location

Airport:

Trip Planner

Search our weather history database for the weather conditions in past years. The results will help you decide how hot, cold, wet, or windy it might be!

Date:

Astronomy

May. 15, 2014 Rise Set
Actual Time 5:59 AM CDT 8:08 PM CDT
Civil Twilight 5:30 AM CDT 8:37 PM CDT
Nautical Twilight 4:55 AM CDT 9:13 PM CDT
Astronomical Twilight 4:17 AM CDT 9:51 PM CDT
Moon 9:16 PM CDT (5/15) 6:46 AM CDT (5/15)
Length of Visible Light 15h 06m
Length of Day
14h 08m
Full, 99% of the Moon is Illuminated
May 15
Full
May 21
Last Quarter
May 28
New
Jun 5
First Quarter
Jun 12
Full

Hourly Weather History & Observations

Time (CDT) Temp. Windchill Dew Point Humidity Pressure Visibility Wind Dir Wind Speed Gust Speed Precip Events Conditions
12:53 AM 42.1 °F 39.2 °F 39.0 °F 89% 30.13 in 10.0 mi West 4.6 mph - N/A   Overcast
1:53 AM 42.1 °F 38.4 °F 39.9 °F 92% 30.12 in 10.0 mi West 5.8 mph - N/A   Overcast
2:53 AM 41.0 °F 37.1 °F 37.9 °F 89% 30.11 in 10.0 mi West 5.8 mph - N/A   Partly Cloudy
3:53 AM 41.0 °F 36.4 °F 37.9 °F 89% 30.11 in 10.0 mi West 6.9 mph - N/A   Clear
4:53 AM 39.9 °F 35.8 °F 37.0 °F 89% 30.11 in 10.0 mi West 5.8 mph - N/A   Clear
5:53 AM 39.9 °F 35.1 °F 37.9 °F 93% 30.11 in 10.0 mi West 6.9 mph - N/A   Mostly Cloudy
6:53 AM 42.1 °F 39.2 °F 39.0 °F 89% 30.13 in 10.0 mi WSW 4.6 mph - N/A   Overcast
7:53 AM 44.1 °F 42.5 °F 41.0 °F 89% 30.13 in 10.0 mi West 3.5 mph - N/A   Partly Cloudy
8:53 AM 50.0 °F - 43.0 °F 77% 30.13 in 10.0 mi West 5.8 mph - N/A   Clear
9:53 AM 54.0 °F - 43.0 °F 66% 30.13 in 10.0 mi WSW 8.1 mph - N/A   Clear
10:53 AM 55.9 °F - 42.1 °F 60% 30.13 in 10.0 mi SW 5.8 mph - N/A   Clear
11:53 AM 60.1 °F - 44.1 °F 55% 30.12 in 10.0 mi SW 10.4 mph - N/A   Clear
12:53 PM 62.1 °F - 44.1 °F 52% 30.09 in 10.0 mi WSW 9.2 mph - N/A   Scattered Clouds
2:16 PM 59.0 °F - 41.0 °F 51% 30.07 in 10.0 mi West 8.1 mph - 0.00 in Rain , Thunderstorm Light Rain
2:53 PM 60.1 °F - 41.0 °F 49% 30.07 in 10.0 mi SW 6.9 mph - 0.00 in Thunderstorm Mostly Cloudy
3:16 PM 55.0 °F - 45.0 °F 69% 30.07 in 8.0 mi NNW 4.6 mph - 0.00 in Rain Light Rain
3:27 PM 55.9 °F - 46.0 °F 69% 30.06 in 10.0 mi Calm Calm - 0.00 in Thunderstorm Thunderstorm
3:44 PM 57.9 °F - 46.0 °F 65% 30.05 in 10.0 mi ESE 4.6 mph - 0.00 in   Partly Cloudy
3:53 PM 60.1 °F - 46.0 °F 60% 30.05 in 10.0 mi SE 4.6 mph - 0.00 in   Partly Cloudy
4:53 PM 63.0 °F - 37.0 °F 38% 30.03 in 10.0 mi West 16.1 mph 27.6 mph N/A   Scattered Clouds
5:53 PM 61.0 °F - 34.0 °F 36% 30.04 in 10.0 mi NW 18.4 mph 25.3 mph N/A   Partly Cloudy
6:53 PM 57.9 °F - 32.0 °F 37% 30.06 in 10.0 mi NW 15.0 mph 23.0 mph N/A   Clear
7:53 PM 54.0 °F - 28.9 °F 38% 30.10 in 10.0 mi NW 6.9 mph - N/A   Clear
8:53 PM 50.0 °F - 28.9 °F 44% 30.13 in 10.0 mi WNW 3.5 mph - N/A   Clear
9:53 PM 46.9 °F - 30.9 °F 54% 30.14 in 10.0 mi Calm Calm - N/A   Clear
10:53 PM 44.1 °F 42.5 °F 30.9 °F 60% 30.14 in 10.0 mi WNW 3.5 mph - N/A   Clear
11:53 PM 42.1 °F 40.2 °F 30.9 °F 65% 30.12 in 10.0 mi West 3.5 mph - N/A   Clear